COSMOS 1275 DEB, 14357

Orbit data source: Space-Track

COSMOS 1275 DEB, 14357 is space debris in LEO originally from a launch on Thu, 04 Jun 1981 UTC launched from the Plesetsk Missile And Space Complex (PKMTR). Debris objects in space refer to the collection of defunct objects orbiting the Earth. Examples of debris include non-operational satellites, rocket bodies, and fragments generated from explosions, collisions, or faulty payload assembly.

Loading next visibility...
Identifier
14357, 1981-053HQ
Orbit
LEO
Country
Flag of CISCIS
Related business
Manufacturer
Unknown
Mission
Spacecraft
Bus & Motor
Unknown
Mass
Unknown
Launch date (UTC)
1981-06-04 (45 years ago)
Launch vehicle
Unknown
Launch site
Plesetsk Missile And Space Complex (PKMTR)
Object type
Payload
Rocket body
Debris
Shape & HBR
Unknown shape, 0.1 m
Radar Cross Section
Small (<0.1 m²)

Expand to show TLE details & history
Last TLE update: 8 hours ago

TLE from 8 hours ago
0 COSMOS 1275 DEB
1 14357U 81053HQ  26095.28386678  .00003085  00000-0  15035-2 0  9999
2 14357  82.8458  49.7081 0037454 253.1230 233.4211 14.17498826193453
Epoch: 2026-04-05T06:48Z
TLE epoch observation values (Epoch: 2026-04-05T06:48:46.089Z)
Latitude
53.29386°
Longitude
-75.71617°
Altitude
858.717 km
Speed
7.42 km/s
True Right ascension
14h 40m 16s
True Declination
53° 07' 52"
Sunlit
Object was in daylight at epoch
Visualization orbit readout
Latitude
Unknown
Longitude
Unknown
Altitude
Unknown
Speed
Unknown
Apparent Right ascension
Unknown
Apparent Declination
Unknown
Sunlit
N/A
Visualization observer readout
Local Sidereal Time
20:39:10
Azimuth
Unknown
Elevation
Unknown
Doppler factor
Unknown
Orbital elements
Apogee altitude
857.919 km
Perigee altitude
803.917 km
Semi-major axis
7,209.055 km
Eccentricity
0.00375
Inclination
82.8458°
RAAN
49.7081°
Arg. of periapsis
253.123°
True anomaly
233.0774°
Mean anomaly
233.4211°
Eccentric anomaly
233.24916°
Mean motion
3.54589 °/min
Orbital period
101.53 mins
BSTAR
0.0015035

Documentation

Showing up to 5 results
|